Hlavní strana
METAR-TAF:

METAR-TAF

Letiště :

Terst, Itálie

zeměpisná šířka: 45-39N, zeměpisná délka: 013-45E, výška: 8 m

Aktuální stav počasí

Zpráva byla vytvořena před 38 minutami, v 14:55 UTC
Severovýchodní vítr 10 kt s nárazy do 29 kt
Teplota 12°C
Vlhkost vzduchu 30%
Tlak 1028 hPa
Viditelnost 10 km a více
Žádná oblačnost pod 1500 m, nevyskytují se cumulonimby.

METAR: LIVT 201455Z 05010G29KT CAVOK 12/M05 Q1028 RMK SKC QUK 2 QUL 1 NE VIS MAR 20 KM VIS MIN 9999

Čas: 16:33 (15:33 UTC)


TAF: chybějící

Stav a předpovědi počasí z více než 4 000 letišť (zprávy METAR a TAF).

Červené a žluté tečky na mapě představují dostupné meteorologické stanice.

Když kurzor umístíte na tečku, zobrazí se název stanice.

Pak kliknutím zobrazíte stav a předpověď počasí.

Chcete-li změnit mapu, kliknutím na zelené tlačítko se znaménkem +mapu přiblížíte, kliknutím na zelené tlačítko se znaménkem – mapu oddálíte a kliknutím na zelené šipky přejdete na sousední mapy.


METAR-TAF: